Regional Weather Roundup
Issued by NWS

Home | Current Version | Previous Version | Text Only | Print | Product List | Glossary On
Versions: 1 2 3 4 5 6 7 8 9 10 11 12 13 14 15 16 17 18 19 20 21 22 23 24 25 26 27 28 29 30 31 32 33 34 35 36 37 38 39 40 41 42 43 44 45 46 47 48 49 50
000
ASUS43 KDTX 281901
RWRMI
MICHIGAN HOURLY REGIONAL WEATHER ROUNDUP
NATIONAL WEATHER SERVICE DETROIT/PONTIAC MI
200 PM EST SUN DEC 28 2014

NOTE: "FAIR" INDICATES FEW OR NO CLOUDS BELOW 12,000 FEET WITH NO
SIGNIFICANT WEATHER AND/OR OBSTRUCTION TO VISIBILITY.

MIZ047>049-052>055-059>063-066>070-074>076-081>083-282000-
SOUTHEAST LOWER MICHIGAN

CITY           SKY/WX    TMP DP  RH WIND       PRES   REMARKS
ADRIAN         CLOUDY    35  25  66 NW12      30.09F WCI  27
ALMA           MOSUNNY   33  21  60 W12       30.07F WCI  25
ANN ARBOR      CLOUDY    36  23  59 W10       30.07F WCI  28
BAD AXE        MOSUNNY   33  22  64 W10G20    30.04F WCI  25
CARO           FAIR      33  24  67 W9        30.05F WCI  26
DETROIT CITY   CLOUDY    39  24  55 W10       30.07F WCI  32
DETROIT        CLOUDY    37  24  59 W12       30.08S WCI  29
FLINT          PTSUNNY   35  20  54 W14       30.07F WCI  26
GROSSE ILE     CLOUDY    37  27  65 W8        30.06S WCI  31
HILLSDALE      CLOUDY    33  25  72 W9        30.08R WCI  26
HOWELL         PTSUNNY   34  21  60 W13       30.06F WCI  25

CITY           SKY/WX    TMP DP  RH WIND       PRES   REMARKS
JACKSON        PTSUNNY   34  22  61 W8        30.07F WCI  27
LAMBERTVILLE   CLOUDY    37  28  70 W7        30.09S WCI  32
LANSING        PTSUNNY   33  22  63 W14       30.08F WCI  23
LAPEER         FAIR      34  19  53 W10G17    30.05F WCI  26
MASON          PTSUNNY   34  22  62 W9        30.07S WCI  26
MONROE         CLOUDY    37  27  65 W7        30.07S WCI  32
MT. CLEMENS    PTSUNNY   38  25  60 W8        30.03F WCI  32
PONTIAC        CLOUDY    33  19  56 W16       30.04F WCI  23
PORT HOPE        N/A     34  19  54 W12G20    30.00F WCI  25
PORT HURON     CLOUDY    36  25  64 W9        30.05F WCI  29
TRI CITIES     MOSUNNY   35  21  56 W13       30.06F WCI  26
TROY           CLOUDY    38  23  56 W12       30.07F WCI  30
SAGINAW HB     MOSUNNY   34  23  64 W14       30.06F WCI  24
$$
MIZ043>046-050>051-056>058-064>065-071>073-077>080-282000-
SOUTHWEST LOWER MICHIGAN

CITY           SKY/WX    TMP DP  RH WIND       PRES   REMARKS
BATTLE CREEK   PTSUNNY   36  23  59 NW10      30.09F WCI  28
BENTON HARBOR  PTSUNNY   31  24  75 W12       30.14S WCI  22
BIG RAPIDS     CLOUDY    31  23  72 W5        30.05F WCI  26
COLDWATER      PTSUNNY   34  24  67 W10       30.09F WCI  26
FREMONT        CLOUDY    32  21  65 W9        30.09F WCI  24
HOLLAND        MOSUNNY   35  21  56 W8        30.12F WCI  29
GRAND RAPIDS   MOSUNNY   33  21  61 W13       30.09F WCI  24
IONIA          FAIR      34  22  61 W12       30.07F WCI  25
KALAMAZOO      PTSUNNY   35  22  58 W9        30.10F WCI  28
MARSHALL       PTSUNNY   35  24  63 W9        30.09R WCI  28
MOUNT PLEASANT MOSUNNY   33  21  60 CALM      30.06F
MUSKEGON       CLOUDY    33  22  63 NW9       30.11F WCI  25
SOUTH HAVEN    PTSUNNY   33  24  69 W8        30.12F WCI  26
$$
MIZ016>042-282000-
NORTHERN LOWER MICHIGAN

CITY           SKY/WX    TMP DP  RH WIND       PRES   REMARKS
ALPENA         PTSUNNY   33  17  51 SW14G21   30.00S WCI  23
BEAVER ISLAND  MOSUNNY   28  20  71 W8        30.03S WCI  20
BELLAIRE       CLOUDY    30  20  67 W7        30.05S WCI  23
CADILLAC       PTSUNNY   28  19  70 W13G18    30.02F WCI  17
CHARLEVOIX     CLOUDY    28  22  77 W14G22    30.06S WCI  17
FRANKFORT      PTSUNNY   29  22  78 W10G16    30.08F WCI  19
GAYLORD        CLOUDY    26  19  74 W16       29.99S WCI  14
GRAYLING       CLOUDY    28  19  69 W9G16     30.02F WCI  19
HARBOR SPRINGS CLOUDY    28  20  72 W14G21    30.01S WCI  17
HOUGHTON LAKE  CLOUDY    29  19  66 W12       30.02F WCI  19
MANISTEE       CLOUDY    28  19  69 W12       30.09F WCI  18
OSCODA         SUNNY     36  17  47 SW12G17   30.00F WCI  28
PELLSTON       CLOUDY    28  20  71 W15       30.01S WCI  16
ROGERS CITY    FLURRIES  30  23  75 W9        30.01R WCI  21
TRAVERSE CITY  CLOUDY    30  21  69 W12       30.06S WCI  20
$$
MIZ007>008-015-282000-
EASTERN UPPER MICHIGAN

CITY           SKY/WX    TMP DP  RH WIND       PRES   REMARKS
KINROSS        CLOUDY    27  21  80 W10       29.97S WCI  17
MACKINAC ISLAN LGT SNOW  26  22  82 W9G16     30.00S WCI  17
NEWBERRY       CLOUDY    23  20  88 W12       29.99S WCI  12
S. S. MARIE    CLOUDY    26  18  71 W12       29.94F WCI  16
MUNISING         N/A     25  17  72 NW9       30.04R WCI  15
$$
MIZ004>006-011>014-085-282000-
CENTRAL UPPER MICHIGAN

CITY           SKY/WX    TMP DP  RH WIND       PRES   REMARKS
MANISTIQUE     MOSUNNY   25  19  77 W10       30.03S WCI  15
ESCANABA       MOSUNNY   23  16  74 NW10      30.06S WCI  12
MENOMINEE      MOSUNNY   25  16  68 N7        30.08F WCI  17
SAWYER-GWINN   PTSUNNY   19  12  73 NW12      30.02R WCI   7
$$
MIZ001>003-009>011-084-282000-
WESTERN UPPER MICHIGAN

CITY           SKY/WX    TMP DP  RH WIND       PRES   REMARKS
IRON MOUNTAIN    N/A     20  10  65 NW10      30.04S WCI   9
HOUGHTON       LGT SNOW  14   7  73 NW18      30.06R WCI  -3
COPPER HARBOR    N/A     18   9  68 N20G28    30.07R WCI   2
IRONWOOD       CLOUDY    14   7  73 NW14      30.08F WCI  -1
$$

ABBREVIATIONS USED IN REMARKS
   TC - TEMPERATURE IN CELSIUS
  WCI - WIND CHILL INDEX
   HX - HEAT INDEX
  VSB - VISIBILITY



USA.gov is the U.S. government's official web portal to all federal, state and local government web resources and services.